Temp
24 21 21 22 22 23 24 24 24 23 25 24 23 22 19 19 18 18 18 18 18 20 21 20 20 20 20 20 20 20 20 20 19 20 20 20 20 20 20 20 20 20 20 20
21 20 21 23 22 24 23 24 23 23 24 23 22 22 20 19 19 19 19 18 18 19 20 20 20 20 20 20 20 20 20 19 20 20 20 20 20 20 20 20 20 20 20 20
21 22 23 23 23 23 22 22 22 24 24 24 23 22 22 19 20 19 19 19 19 20 21 21 21 21 20 21 21 21 20 20 20 20 20 20 20 20 20 20 20 20 20 20
20 22 23 22 23 22 21 22 24 24 23 22 23 21 22 20 19 19 19 19 19 19 21 21 21 21 21 21 21 21 21 20 21 20 20 20 20 21 21 21 20 20 20 20
20 20 21 22 22 23 22 24 23 24 22 22 23 21 21 19 19 19 20 20 20 20 20 21 21 21 21 21 22 21 21 21 21 21 20 20 20 21 21 21 20 20 20 20
20 22 21 22 23 23 24 24 20 18 18 18 22 22 21 21 21 20 21 20 20 20 21 21 22 22 22 21 21 21 21 21 21 21 21 21 21 21 21 21 20 21 21 20
20 21 22 24 23 23 21 19 18 19 18 19 22 20 24 24 24 23 21 21 21 20 20 20 22 22 22 22 21 21 21 21 21 21 21 21 21 21 21 21 21 21 21 21
17 19 20 22 21 20 19 18 17 20 18 20 20 21 24 24 26 25 25 25 21 20 21 21 22 22 22 22 21 21 21 21 21 21 21 21 21 21 21 21 21 21 21 21
15 18 20 21 21 22 21 19 19 19 18 18 19 22 24 24 24 24 23 23 22 20 20 21 21 22 22 22 22 21 21 21 22 22 22 22 22 22 22 21 21 21 21 21
16 18 19 22 22 22 20 19 19 14 19 19 19 19 22 24 25 23 22 22 22 21 21 20 21 22 22 22 23 22 22 22 22 22 22 22 22 22 22 22 21 21 21 21
14 15 18 20 19 19 19 19 16 16 16 18 19 21 20 25 24 22 21 23 22 22 21 21 21 22 23 23 23 23 22 22 22 22 22 22 22 22 22 22 22 22 21 21
13 11 15 17 18 20 19 18 19 19 18 15 17 23 23 24 23 23 23 23 23 23 22 21 21 21 22 23 23 23 23 22 22 22 22 22 22 22 22 23 22 22 22 21
14 11 13 15 18 17 20 19 17 15 15 19 19 20 23 21 22 24 23 24 24 23 22 22 21 21 22 22 22 23 23 23 23 22 22 22 22 22 22 23 23 23 22 22
12 9 12 13 16 14 16 19 19 17 16 17 17 21 22 24 22 23 25 24 24 24 23 23 22 22 22 23 22 22 23 23 23 23 22 22 22 22 22 23 23 23 23 22
9 11 11 11 12 14 15 17 18 18 18 20 21 19 21 22 22 23 28 25 24 24 24 24 24 23 23 22 22 22 23 23 23 23 22 22 23 22 22 22 23 23 23 23
7 11 10 12 14 15 16 17 18 18 20 18 19 19 19 19 20 22 26 27 25 25 25 25 24 22 22 23 23 23 22 23 23 23 23 23 23 23 23 22 22 23 23 23
8 8 9 13 11 13 16 17 19 20 18 18 19 19 17 17 17 19 24 27 28 30 28 26 26 25 23 23 24 24 25 24 23 23 23 23 23 23 23 23 22 23 23 23
9 8 7 9 11 16 18 17 18 18 18 17 16 17 17 17 17 19 22 23 26 26 30 29 27 26 24 23 23 23 23 24 24 24 24 24 23 23 23 23 23 23 23 23
7 7 9 10 10 13 17 16 15 15 17 16 16 17 18 17 19 21 22 23 24 25 27 27 28 26 23 23 23 22 22 24 24 24 24 24 24 24 23 23 23 23 23 23
5 6 9 8 11 13 14 14 13 15 15 14 14 16 17 16 17 18 20 23 25 25 27 28 27 24 24 23 22 22 22 24 24 24 25 25 25 24 24 23 23 24 23 24
7 7 8 9 10 12 11 12 13 15 14 11 13 14 15 16 16 15 17 22 22 25 27 27 26 26 26 24 23 22 22 24 26 26 26 25 25 25 24 24 23 23 23 24
7 8 8 8 10 12 11 12 13 11 10 11 12 13 14 14 15 15 17 18 21 24 26 27 26 26 26 25 24 23 23 28 26 25 25 25 25 25 24 24 23 23 23 23
7 7 7 8 9 9 9 10 9 9 10 10 12 13 13 13 14 15 16 17 18 19 24 26 25 26 25 25 25 24 28 27 26 25 26 25 25 24 24 24 23 23 23 23
6 7 7 8 9 8 9 9 8 9 10 10 11 12 12 13 13 15 15 17 18 18 18 22 23 22 24 24 24 26 27 27 26 25 26 26 25 25 24 24 24 24 23 23
5 7 6 7 9 8 10 9 7 9 10 11 12 12 12 12 13 14 15 16 17 17 18 18 19 21 22 22 23 22 24 25 24 24 24 25 25 25 25 25 25 25 25 25
6 6 6 7 7 6 7 8 8 9 10 11 11 12 13 12 13 13 14 15 16 17 17 18 18 18 19 22 21 21 22 23 24 25 25 25 24 25 25 25 25 25 25 25
Height
1481 1491 1499 1492 1492 1494 1497 1502 1505 1498 1492 1496 1497 1499 1499 1500 1505 1508 1509 1511 1515 1514 1521 1529 1536 1541 1546 1550 1553 1556 1559 1562 1564 1566 1570 1572 1574 1575 1577 1578 1579 1579 1580 1580
1485 1493 1483 1484 1489 1492 1497 1502 1504 1495 1491 1496 1498 1495 1492 1495 1494 1495 1499 1505 1508 1515 1518 1524 1531 1536 1541 1546 1549 1553 1556 1560 1563 1566 1570 1572 1574 1575 1577 1578 1579 1579 1580 1580
1481 1480 1478 1483 1488 1494 1499 1504 1503 1502 1494 1492 1495 1499 1492 1493 1495 1499 1499 1500 1502 1506 1511 1518 1524 1529 1536 1540 1544 1549 1553 1557 1561 1565 1568 1571 1573 1575 1576 1577 1578 1579 1580 1581
1476 1472 1477 1483 1488 1490 1505 1492 1494 1495 1504 1519 1495 1524 1493 1489 1492 1494 1496 1496 1499 1501 1506 1513 1517 1523 1528 1534 1541 1546 1550 1554 1558 1562 1566 1569 1571 1573 1575 1577 1579 1579 1581 1581
1474 1474 1478 1482 1483 1485 1494 1487 1492 1494 1503 1505 1504 1518 1494 1486 1493 1488 1484 1487 1490 1494 1500 1503 1509 1516 1523 1530 1535 1542 1547 1551 1555 1559 1563 1567 1569 1572 1574 1576 1578 1579 1580 1581
1467 1466 1469 1470 1474 1478 1481 1488 1497 1505 1511 1530 1502 1509 1497 1487 1478 1472 1473 1477 1482 1487 1493 1499 1505 1512 1519 1526 1532 1537 1543 1548 1552 1556 1560 1563 1567 1570 1572 1575 1576 1578 1579 1581
1468 1468 1465 1465 1475 1476 1485 1503 1531 1529 1534 1528 1493 1507 1482 1465 1460 1457 1460 1463 1469 1478 1487 1493 1498 1505 1513 1519 1526 1532 1538 1544 1548 1552 1557 1560 1564 1567 1570 1573 1575 1576 1578 1580
1483 1488 1468 1464 1471 1481 1486 1495 1525 1534 1535 1517 1498 1507 1477 1453 1448 1449 1450 1452 1461 1469 1477 1484 1490 1497 1505 1513 1520 1527 1533 1539 1544 1548 1552 1556 1560 1564 1567 1570 1573 1574 1576 1578
1484 1481 1462 1460 1463 1469 1484 1498 1488 1507 1515 1521 1505 1481 1459 1449 1445 1444 1445 1449 1456 1463 1469 1475 1484 1491 1498 1505 1513 1520 1527 1533 1538 1543 1548 1552 1556 1559 1562 1567 1569 1572 1574 1576
1475 1481 1464 1458 1460 1465 1471 1477 1501 1517 1523 1528 1511 1498 1481 1456 1449 1447 1447 1448 1451 1459 1467 1474 1478 1484 1492 1499 1506 1515 1521 1527 1532 1538 1542 1546 1550 1554 1558 1562 1565 1568 1571 1573
1472 1477 1473 1463 1468 1474 1477 1483 1492 1495 1506 1513 1517 1489 1456 1450 1443 1444 1444 1444 1447 1451 1457 1464 1470 1477 1484 1492 1500 1507 1514 1521 1526 1532 1536 1540 1545 1549 1553 1556 1560 1563 1567 1569
1476 1486 1484 1474 1461 1460 1462 1471 1475 1494 1503 1506 1505 1469 1442 1442 1441 1442 1439 1440 1446 1449 1454 1461 1468 1475 1479 1484 1491 1497 1504 1512 1518 1525 1530 1534 1539 1544 1547 1550 1554 1558 1561 1564
1477 1491 1494 1482 1470 1464 1465 1465 1469 1480 1485 1486 1498 1481 1442 1442 1437 1437 1437 1437 1441 1446 1451 1457 1463 1467 1472 1477 1483 1489 1496 1502 1510 1516 1523 1528 1532 1537 1540 1544 1548 1552 1556 1559
1478 1493 1493 1495 1481 1481 1477 1467 1466 1471 1491 1487 1484 1468 1452 1441 1439 1432 1432 1432 1435 1439 1443 1448 1455 1458 1464 1469 1475 1481 1487 1495 1502 1508 1514 1520 1525 1530 1534 1538 1542 1546 1550 1553
1483 1492 1490 1486 1482 1481 1476 1470 1467 1470 1466 1471 1461 1467 1450 1440 1435 1430 1428 1430 1431 1434 1439 1440 1443 1446 1453 1461 1467 1474 1480 1486 1493 1499 1506 1511 1518 1523 1528 1532 1536 1540 1544 1546
1488 1493 1492 1485 1474 1475 1473 1465 1462 1462 1459 1462 1456 1457 1442 1437 1434 1427 1424 1423 1426 1425 1427 1430 1435 1441 1445 1451 1457 1465 1471 1477 1485 1491 1497 1504 1511 1516 1520 1525 1530 1533 1536 1539
1494 1496 1497 1490 1484 1478 1475 1462 1455 1452 1454 1456 1459 1447 1441 1433 1428 1424 1420 1418 1417 1415 1418 1423 1425 1426 1433 1439 1447 1453 1460 1469 1476 1482 1489 1496 1502 1508 1513 1518 1523 1525 1528 1531
1493 1498 1502 1499 1488 1485 1461 1455 1452 1451 1453 1455 1453 1448 1442 1436 1424 1418 1416 1417 1415 1414 1413 1415 1419 1423 1425 1432 1440 1448 1457 1462 1468 1475 1481 1487 1493 1499 1506 1510 1514 1518 1521 1524
1488 1496 1499 1499 1503 1479 1459 1463 1465 1464 1458 1453 1452 1447 1440 1428 1419 1410 1412 1414 1412 1411 1413 1415 1415 1417 1422 1427 1434 1441 1447 1454 1460 1466 1473 1479 1485 1492 1497 1501 1506 1511 1513 1516
1489 1492 1496 1505 1498 1488 1471 1465 1464 1463 1468 1455 1454 1448 1437 1428 1428 1413 1409 1407 1405 1408 1408 1410 1413 1415 1419 1424 1431 1437 1441 1447 1452 1458 1464 1471 1478 1484 1490 1494 1498 1503 1506 1508
1495 1496 1498 1500 1496 1481 1473 1464 1454 1466 1470 1458 1454 1449 1442 1436 1433 1423 1414 1406 1405 1404 1404 1406 1408 1410 1413 1420 1426 1433 1438 1441 1446 1453 1459 1465 1470 1476 1481 1487 1492 1495 1498 1501
1495 1495 1497 1498 1493 1490 1474 1467 1469 1474 1465 1460 1453 1447 1441 1436 1429 1422 1415 1409 1405 1401 1400 1401 1404 1407 1412 1417 1422 1428 1432 1438 1443 1448 1453 1459 1464 1468 1473 1477 1483 1486 1490 1493
1496 1494 1494 1495 1486 1482 1481 1480 1477 1470 1466 1459 1452 1446 1440 1435 1429 1422 1415 1409 1405 1401 1397 1398 1400 1403 1408 1414 1419 1423 1427 1433 1438 1443 1448 1454 1458 1462 1466 1470 1475 1479 1482 1484
1491 1491 1492 1492 1483 1482 1480 1477 1473 1466 1463 1458 1453 1447 1440 1436 1431 1423 1416 1411 1407 1403 1400 1396 1398 1403 1407 1411 1416 1420 1425 1429 1433 1438 1443 1448 1452 1456 1460 1463 1467 1471 1474 1476
1492 1492 1493 1489 1483 1478 1475 1476 1470 1462 1460 1456 1451 1446 1441 1436 1430 1425 1419 1415 1411 1408 1404 1399 1400 1401 1405 1409 1415 1419 1422 1426 1430 1434 1438 1442 1445 1449 1453 1456 1459 1462 1465 1468
1489 1491 1491 1487 1487 1489 1481 1474 1469 1463 1458 1456 1451 1445 1441 1436 1431 1426 1422 1419 1414 1409 1404 1404 1401 1401 1401 1405 1410 1415 1420 1422 1425 1427 1431 1434 1438 1442 1445 1449 1452 1455 1458 1460
Wind_Speed
5 4 5 9 6 5 4 2 3 3 5 5 6 5 13 22 17 19 24 28 31 40 35 34 32 30 27 27 25 21 21 19 18 16 17 15 11 10 9 7 4 4 1 2
3 6 9 4 5 3 3 1 5 5 4 5 4 10 8 16 23 33 32 30 33 34 35 35 35 32 30 29 28 25 23 22 20 21 18 16 13 10 10 6 3 2 1 3
9 8 7 6 3 4 3 4 3 5 4 2 3 6 4 10 16 22 24 32 35 41 41 41 39 38 34 32 27 28 25 24 22 25 23 20 17 13 11 9 4 2 2 2
5 4 8 5 5 7 5 7 3 4 3 3 3 5 5 7 17 15 24 30 33 38 43 45 44 41 38 33 29 30 25 23 24 26 27 24 20 16 12 7 5 4 2 1
9 8 7 5 7 7 9 4 5 3 4 2 3 0 7 5 5 14 26 34 37 43 45 48 48 45 39 31 34 32 27 25 24 28 29 26 24 20 15 10 9 5 4 3
6 3 7 9 5 9 4 3 6 5 4 1 7 6 7 5 9 9 24 35 39 42 46 48 48 45 40 32 36 35 31 26 25 30 30 27 26 23 19 15 11 7 8 7
2 2 2 3 5 3 6 6 2 3 1 5 2 5 13 8 11 11 18 36 42 43 44 45 49 48 43 40 39 38 35 31 29 29 32 30 28 25 21 18 13 9 9 8
6 4 7 3 6 7 6 9 6 6 3 4 3 6 7 10 17 15 21 36 39 42 46 48 51 51 48 44 42 42 39 35 32 31 30 32 30 28 24 20 17 12 12 11
5 5 4 5 5 9 4 4 6 5 1 2 4 7 9 9 9 5 9 21 31 39 43 49 50 49 51 48 48 46 42 38 35 32 32 31 31 31 29 24 21 19 15 14
2 1 3 4 5 2 8 8 3 3 6 5 5 5 6 7 7 2 5 17 29 36 37 40 49 50 50 51 47 48 45 41 38 35 32 32 31 30 30 28 26 24 21 18
1 3 5 3 5 9 2 3 5 5 5 6 2 8 7 10 11 8 8 25 31 38 41 43 48 51 51 49 50 48 48 46 42 39 35 33 32 32 30 30 29 28 25 23
4 4 4 10 4 2 5 10 10 6 6 3 3 13 5 9 5 7 16 26 29 35 37 39 41 44 49 51 51 51 51 48 47 42 39 35 32 31 34 32 31 28 28 27
2 3 2 6 5 5 2 2 5 4 4 11 5 7 2 6 9 11 19 24 29 31 35 38 39 44 48 50 52 53 52 51 48 46 43 39 36 32 34 35 33 31 28 29
3 3 3 5 3 1 4 3 4 6 4 5 7 6 8 13 10 9 17 22 28 35 38 41 42 46 48 50 51 53 53 51 50 49 47 44 39 36 34 34 34 33 31 30
4 3 3 5 8 3 4 6 6 5 6 7 7 9 9 11 11 14 25 19 24 33 37 41 44 49 49 49 51 52 52 52 53 50 49 46 41 37 35 34 33 33 32 33
6 1 2 5 2 3 5 9 9 8 4 8 3 7 4 18 22 19 26 22 27 32 39 42 45 45 50 50 52 53 52 52 52 53 51 46 43 41 39 36 34 33 33 34
3 2 3 5 6 7 3 6 5 3 5 2 3 5 7 11 13 18 28 27 32 34 38 41 44 49 52 53 53 54 53 51 51 50 48 47 45 43 41 39 36 36 35 34
3 2 1 3 6 2 3 7 2 5 4 2 5 10 13 15 28 35 32 25 34 34 31 36 43 43 47 51 51 52 52 51 50 48 45 44 43 43 42 41 40 37 36 36
5 4 1 2 2 6 2 6 7 6 3 10 14 16 20 24 16 20 12 17 29 30 31 30 31 37 41 46 47 50 51 51 50 48 45 43 40 39 41 42 41 39 38 38
5 4 3 2 2 6 3 13 16 8 4 16 19 16 18 21 4 3 30 24 20 19 20 20 24 28 33 38 42 47 51 49 49 46 43 40 39 38 39 40 40 40 39 39
3 2 5 3 3 6 11 24 19 6 4 28 23 22 21 8 9 26 25 12 8 17 17 17 22 28 32 33 38 44 47 46 43 40 36 38 38 37 36 36 38 39 39 38
2 4 3 2 2 6 21 8 5 9 19 21 22 23 21 23 21 22 19 14 10 6 14 16 22 25 31 33 36 40 42 30 39 40 37 35 33 35 35 33 35 37 37 37
1 1 1 3 4 5 16 13 11 17 16 19 22 25 24 21 23 23 26 22 19 14 5 16 24 26 30 33 35 37 28 30 35 39 34 34 33 33 32 31 32 34 35 36
2 3 1 4 2 11 13 14 19 25 25 26 22 22 21 21 20 24 25 25 25 24 17 2 12 24 30 32 36 34 31 29 31 36 32 31 32 32 32 31 31 34 36 36
2 3 2 5 6 20 8 23 29 27 25 26 23 21 20 18 20 21 22 23 25 24 24 21 6 9 15 21 29 34 33 30 30 31 32 32 31 30 31 32 32 32 33 34
3 2 2 2 9 9 20 26 26 24 26 24 24 22 20 18 17 17 20 22 23 24 23 23 22 18 10 9 12 19 25 26 25 25 27 28 29 30 31 31 32 33 34 34
Wind_Direction
164 120 191 208 183 151 139 133 252 258 205 164 226 211 187 186 186 185 189 189 196 198 198 200 204 208 206 205 204 206 197 193 194 191 193 190 179 170 158 144 119 133 117 335
76 195 209 119 159 145 122 159 275 291 216 167 212 257 187 181 198 195 192 193 199 204 199 201 203 204 207 210 215 217 211 204 203 202 203 201 190 187 179 164 137 111 77 34
187 206 161 153 154 147 148 173 225 237 360 264 113 294 179 210 219 210 208 202 199 202 201 198 197 202 205 212 216 213 209 210 212 202 207 206 200 200 196 185 165 124 124 126
208 187 161 157 176 147 236 215 198 255 69 233 133 275 262 189 210 206 205 205 204 204 203 204 199 203 205 211 216 207 203 208 201 202 204 207 207 207 209 205 190 175 141 118
217 163 162 176 182 155 228 178 219 207 209 38 201 76 272 108 195 220 211 208 205 207 205 203 203 202 206 210 203 203 201 203 204 204 203 210 214 219 219 211 209 212 212 249
178 144 163 201 160 175 116 108 40 51 100 258 228 167 273 194 207 225 214 211 206 203 206 207 205 204 204 206 202 201 202 203 204 205 206 210 216 218 222 218 222 232 221 251
1 210 202 136 111 126 105 85 319 327 347 219 180 160 241 264 242 221 197 207 205 200 201 202 205 205 202 203 202 203 204 206 206 210 213 215 215 218 222 225 226 234 230 241
157 270 162 178 167 170 170 150 155 196 209 261 139 218 253 236 272 264 230 215 199 195 199 201 206 205 205 206 205 207 208 209 210 212 216 216 217 220 228 230 229 235 235 241
142 253 260 201 150 138 187 143 188 118 26 16 250 283 301 275 276 312 256 199 191 193 196 199 206 208 207 207 210 210 212 215 214 213 217 219 220 224 228 231 234 236 239 244
158 74 241 252 102 299 159 169 90 357 173 251 277 267 238 304 295 232 179 185 187 194 196 197 203 210 210 211 212 215 218 218 216 215 217 221 222 225 227 232 236 239 242 247
61 104 287 84 190 176 144 162 58 135 153 188 188 254 213 243 262 214 204 197 195 194 195 197 204 211 213 213 214 216 219 218 219 220 221 223 225 226 228 233 237 241 243 245
348 126 210 219 259 283 185 181 184 206 246 227 187 257 256 244 283 238 232 212 206 203 200 201 201 205 210 214 215 217 218 221 221 222 223 222 226 227 230 233 236 240 243 244
307 19 21 357 357 0 76 245 145 114 111 220 219 268 285 300 295 263 252 227 213 205 202 202 204 208 213 217 218 218 220 222 223 222 224 224 225 228 232 232 235 239 243 244
107 80 140 189 200 223 306 310 205 147 152 180 224 256 288 288 274 273 270 243 217 211 207 205 208 214 219 221 221 220 221 222 223 224 223 225 226 228 232 233 235 239 241 244
71 92 319 255 259 257 251 264 275 231 202 183 225 208 244 251 271 260 274 256 217 211 208 212 216 214 220 220 222 223 224 222 222 224 224 225 226 227 231 235 235 238 241 244
350 164 8 295 294 332 269 257 249 240 259 268 265 260 208 303 310 283 269 250 230 223 222 222 222 212 215 220 222 223 224 223 223 224 226 225 225 227 230 234 236 238 240 245
46 69 45 275 348 331 278 246 226 145 52 298 254 271 324 310 300 277 264 242 239 233 234 229 226 226 217 217 221 221 222 223 223 224 225 227 225 226 229 233 236 239 242 246
138 83 102 262 340 170 237 359 32 155 128 341 303 314 306 289 284 285 269 261 252 252 240 236 230 233 227 219 220 222 222 222 223 222 222 224 225 224 228 232 236 239 244 247
187 120 82 108 272 289 109 31 355 352 300 27 346 330 331 327 311 282 292 274 275 275 261 262 253 240 219 216 218 216 218 221 222 222 221 222 222 222 227 231 236 240 244 249
98 75 110 121 175 224 69 331 317 281 259 359 339 328 340 353 345 281 333 322 281 264 262 258 253 234 222 217 216 214 217 218 222 223 222 222 223 224 229 233 236 240 245 250
98 112 193 213 256 287 352 331 324 158 307 318 325 328 331 341 309 308 325 343 312 249 258 244 243 237 231 220 217 217 219 220 223 224 223 225 226 227 230 235 238 241 244 249
178 147 195 155 188 275 357 348 40 305 303 321 329 332 331 334 338 343 356 1 356 269 239 229 229 230 229 224 220 218 218 227 227 225 224 226 225 226 228 231 237 240 244 248
189 189 170 236 221 4 334 318 331 340 332 338 337 339 337 341 348 358 2 18 24 19 299 230 231 226 227 228 224 219 222 227 231 228 227 229 234 234 234 235 239 242 245 249
356 45 242 334 50 327 314 330 343 7 354 353 353 348 344 348 348 6 16 25 29 34 30 355 217 222 225 226 226 227 231 230 233 231 232 237 239 240 238 239 240 245 248 250
183 311 307 262 323 336 214 339 336 357 6 2 4 360 352 351 356 5 15 28 31 39 48 57 87 205 223 235 235 232 235 236 235 239 239 239 239 242 244 245 247 248 252 254
171 206 218 252 324 294 288 319 332 356 3 355 0 1 8 13 13 18 26 27 33 37 45 56 69 79 90 195 222 233 239 242 238 236 240 243 244 245 246 249 251 255 258 261